TimeEST,TemperatureF,Dew PointF,Humidity,Sea Level PressureIn,VisibilityMPH,Wind Direction,Wind SpeedMPH,Gust SpeedMPH,PrecipitationIn,Events,Conditions,WindDirDegrees,DateUTC
12:15 AM,57.2,53.6,88,30.11,10.0,North,5.8,-,N/A,,Overcast,10,2012-11-20 05:15:00
12:35 AM,57.2,53.6,88,30.11,10.0,North,5.8,-,N/A,,Overcast,360,2012-11-20 05:35:00
12:55 AM,57.2,53.6,88,30.10,10.0,North,6.9,-,N/A,,Overcast,360,2012-11-20 05:55:00
1:15 AM,57.2,53.6,88,30.10,10.0,North,5.8,-,N/A,,Overcast,350,2012-11-20 06:15:00
1:35 AM,57.2,53.6,88,30.10,10.0,North,6.9,-,N/A,,Overcast,350,2012-11-20 06:35:00
1:55 AM,59.0,53.6,82,30.09,10.0,North,6.9,-,N/A,,Overcast,360,2012-11-20 06:55:00
2:15 AM,59.0,53.6,82,30.09,10.0,North,6.9,-,N/A,,Overcast,360,2012-11-20 07:15:00
2:35 AM,59.0,53.6,82,30.08,10.0,North,5.8,-,N/A,,Overcast,350,2012-11-20 07:35:00
2:55 AM,59.0,53.6,82,30.08,10.0,North,8.1,-,N/A,,Overcast,350,2012-11-20 07:55:00
3:15 AM,59.0,53.6,82,30.09,10.0,North,5.8,-,N/A,,Overcast,350,2012-11-20 08:15:00
3:35 AM,59.0,53.6,82,30.08,10.0,North,6.9,-,N/A,,Overcast,350,2012-11-20 08:35:00
7:15 AM,59.0,51.8,77,30.11,10.0,North,6.9,-,N/A,,Scattered Clouds,350,2012-11-20 12:15:00
7:35 AM,59.0,51.8,77,30.11,10.0,North,6.9,-,N/A,,Clear,350,2012-11-20 12:35:00
7:55 AM,59.0,53.6,82,30.11,10.0,North,9.2,-,N/A,,Clear,360,2012-11-20 12:55:00
8:15 AM,60.8,53.6,77,30.12,10.0,North,9.2,-,N/A,,Clear,360,2012-11-20 13:15:00
8:35 AM,60.8,53.6,77,30.11,10.0,North,9.2,-,N/A,,Clear,350,2012-11-20 13:35:00
8:55 AM,60.8,53.6,77,30.11,10.0,North,9.2,-,N/A,,Clear,360,2012-11-20 13:55:00
9:15 AM,62.6,53.6,72,30.11,10.0,North,8.1,-,N/A,,Clear,360,2012-11-20 14:15:00
9:35 AM,62.6,53.6,72,30.12,10.0,North,8.1,-,N/A,,Clear,360,2012-11-20 14:35:00
9:55 AM,64.4,53.6,68,30.12,10.0,North,9.2,-,N/A,,Clear,360,2012-11-20 14:55:00
10:15 AM,64.4,53.6,68,30.13,10.0,North,9.2,-,N/A,,Clear,10,2012-11-20 15:15:00
10:35 AM,66.2,53.6,64,30.12,10.0,NNE,6.9,-,N/A,,Clear,20,2012-11-20 15:35:00
10:55 AM,68.0,53.6,60,30.11,10.0,North,6.9,-,N/A,,Clear,10,2012-11-20 15:55:00
11:15 AM,68.0,53.6,60,30.11,10.0,North,6.9,-,N/A,,Clear,10,2012-11-20 16:15:00
11:35 AM,68.0,53.6,60,30.10,10.0,NE,10.4,-,N/A,,Clear,40,2012-11-20 16:35:00
11:55 AM,69.8,53.6,56,30.09,10.0,North,10.4,-,N/A,,Clear,350,2012-11-20 16:55:00
12:15 PM,69.8,53.6,56,30.09,10.0,North,10.4,-,N/A,,Clear,360,2012-11-20 17:15:00
12:35 PM,69.8,53.6,56,30.07,10.0,North,12.7,-,N/A,,Clear,360,2012-11-20 17:35:00
12:55 PM,71.6,53.6,53,30.06,10.0,NNE,8.1,-,N/A,,Clear,30,2012-11-20 17:55:00
1:15 PM,71.6,53.6,53,30.05,10.0,NNE,11.5,-,N/A,,Clear,30,2012-11-20 18:15:00
1:35 PM,71.6,53.6,53,30.04,-9999.0,North,6.9,-,N/A,,Clear,360,2012-11-20 18:35:00
1:55 PM,71.6,53.6,53,30.03,10.0,NNE,9.2,16.1,N/A,,Clear,30,2012-11-20 18:55:00
2:15 PM,71.6,53.6,53,30.02,10.0,North,8.1,-,N/A,,Clear,350,2012-11-20 19:15:00
2:35 PM,73.4,55.4,53,30.03,10.0,North,8.1,17.3,N/A,,Clear,360,2012-11-20 19:35:00
2:55 PM,71.6,53.6,53,30.03,10.0,North,9.2,-,N/A,,Clear,350,2012-11-20 19:55:00
3:15 PM,71.6,53.6,53,30.03,10.0,North,9.2,-,N/A,,Clear,360,2012-11-20 20:15:00
3:35 PM,71.6,53.6,53,30.02,10.0,North,8.1,-,N/A,,Clear,360,2012-11-20 20:35:00
3:55 PM,71.6,53.6,53,30.02,10.0,North,9.2,-,N/A,,Clear,10,2012-11-20 20:55:00
4:15 PM,71.6,53.6,53,30.01,10.0,NNE,10.4,-,N/A,,Scattered Clouds,30,2012-11-20 21:15:00
4:35 PM,69.8,53.6,56,30.02,10.0,NNE,8.1,-,N/A,,Scattered Clouds,30,2012-11-20 21:35:00
4:55 PM,69.8,53.6,56,30.01,10.0,NNE,8.1,-,N/A,,Clear,30,2012-11-20 21:55:00
5:15 PM,68.0,53.6,60,30.01,10.0,NNE,4.6,-,N/A,,Clear,20,2012-11-20 22:15:00
5:35 PM,64.4,55.4,73,30.02,10.0,Calm,Calm,-,N/A,,Clear,0,2012-11-20 22:35:00
5:55 PM,62.6,55.4,77,30.02,10.0,Calm,Calm,-,N/A,,Clear,0,2012-11-20 22:55:00
6:15 PM,60.8,55.4,82,30.03,10.0,Calm,Calm,-,N/A,,Clear,0,2012-11-20 23:15:00
6:35 PM,60.8,55.4,82,30.03,10.0,Calm,Calm,-,N/A,,Clear,0,2012-11-20 23:35:00
6:55 PM,59.0,53.6,82,30.04,10.0,Calm,Calm,-,N/A,,Clear,0,2012-11-20 23:55:00
7:15 PM,59.0,53.6,82,30.05,10.0,Calm,Calm,-,N/A,,Scattered Clouds,0,2012-11-21 00:15:00
7:35 PM,59.0,55.4,88,30.06,10.0,Calm,Calm,-,N/A,,Overcast,0,2012-11-21 00:35:00
7:55 PM,62.6,55.4,77,30.06,10.0,Calm,Calm,-,N/A,,Overcast,0,2012-11-21 00:55:00
8:15 PM,60.8,55.4,82,30.06,10.0,Calm,Calm,-,N/A,,Scattered Clouds,0,2012-11-21 01:15:00
8:35 PM,59.0,53.6,82,30.07,10.0,Calm,Calm,-,N/A,,Clear,0,2012-11-21 01:35:00
8:55 PM,59.0,53.6,82,30.07,10.0,Calm,Calm,-,N/A,,Clear,0,2012-11-21 01:55:00
9:15 PM,55.4,53.6,94,30.08,10.0,Calm,Calm,-,N/A,,Clear,0,2012-11-21 02:15:00
9:35 PM,55.4,53.6,94,30.08,10.0,Calm,Calm,-,N/A,,Clear,0,2012-11-21 02:35:00
9:55 PM,53.6,53.6,100,30.08,10.0,Calm,Calm,-,N/A,,Clear,0,2012-11-21 02:55:00
10:15 PM,53.6,53.6,100,30.08,10.0,Calm,Calm,-,N/A,,Clear,0,2012-11-21 03:15:00
10:35 PM,53.6,53.6,100,30.08,10.0,Calm,Calm,-,N/A,,Clear,0,2012-11-21 03:35:00
10:55 PM,53.6,51.8,94,30.08,10.0,Calm,Calm,-,N/A,,Clear,0,2012-11-21 03:55:00
11:15 PM,51.8,51.8,100,30.07,7.0,Calm,Calm,-,N/A,,Clear,0,2012-11-21 04:15:00
11:35 PM,51.8,51.8,100,30.07,7.0,Calm,Calm,-,N/A,,Clear,0,2012-11-21 04:35:00
11:55 PM,51.8,51.8,100,30.07,10.0,Calm,Calm,-,N/A,,Clear,0,2012-11-21 04:55:00